Flag for U.S.A. Weather past 2 weeks in Glendale, Arizona, U.S.A.

Now
106 °F

Sunny.


Feels Like: 100 °F
Forecast: 79 / 102 °F
Wind: 14 mph from North

Location: Phoenix-Deer Valley Municipal Airport

Current Time: Aug 28, 2014 at 4:52:31 PM

Latest Report: Aug 28, 2014 at 3:53 PM


Visibility: 10 mi

Pressure: 29.73 "Hg

Humidity: 9%

Dew point: 35 °F

Location of GlendaleLocation

Historic Weather in Glendale — Graph

°F

Glendale temperature yesterday

Maximum temperature yesterday: 99 °F (at 4:53 PM)
Minimum temperature yesterday: 80 °F (at 5:53 AM)
Average temperature yesterday: 89 °F

Past Weeks' High & Low Weather Summary

 TemperatureHumidityPressure
High107 °F (Aug 17, 4:53 PM)94% (Aug 19, 7:01 AM)29.97 "Hg (Aug 19, 7:01 AM)
Low69 °F (Aug 22, 4:53 AM)9% (Aug 28, 3:53 PM)29.66 "Hg (Aug 17, 5:53 PM)
Average87 °F45%29.83 "Hg
* Reported Aug 13 3:53 PM — Aug 28 3:53 PM, Glendale, Weather by CustomWeather, © 2014

Note: Actual official high and low records may vary slightly from our data, if they occured in-between our weather recording intervals... More about our weather records

Advertising

Glendale weather history for previous 24 hours

 ConditionsComfort  
Time TempWeatherWind HumidityBarometerVisibility
3:53 PM
Aug 28
106 °FSunny.14 mph9%29.73 "Hg10 mi
2:53 PM100 °FSunny.3 mph13%29.75 "Hg10 mi
1:53 PM100 °FSunny.No wind14%29.78 "Hg10 mi
12:53 PM99 °FSunny.No wind16%29.81 "Hg10 mi
11:53 AM97 °FSunny.3 mph20%29.85 "Hg10 mi
10:53 AM94 °FSunny.No wind27%29.87 "Hg10 mi
9:53 AM92 °FSunny.No wind31%29.88 "Hg10 mi
8:53 AM90 °FSunny.3 mph35%29.88 "Hg10 mi
7:53 AM86 °FSunny.7 mph37%29.89 "Hg10 mi
6:53 AM81 °FSunny.8 mph45%29.88 "Hg10 mi
5:53 AM79 °FClear.3 mph50%29.87 "Hg10 mi
4:53 AM80 °FClear.5 mph47%29.86 "Hg10 mi
3:53 AM82 °FClear.3 mph44%29.85 "Hg10 mi
2:53 AM82 °FClear.7 mph46%29.85 "Hg10 mi
1:53 AM85 °FPassing clouds.5 mph40%29.86 "Hg10 mi
12:53 AM86 °FPassing clouds.7 mph39%29.86 "Hg10 mi
11:53 PM
Aug 27
86 °FClear.5 mph39%29.87 "Hg10 mi
10:53 PM88 °FClear.3 mph38%29.87 "Hg10 mi
9:53 PM90 °FClear.5 mph35%29.86 "Hg10 mi
8:53 PM92 °FClear.No wind32%29.86 "Hg10 mi
7:53 PM94 °FClear.3 mph28%29.85 "Hg10 mi
6:53 PM95 °FSunny.5 mph28%29.84 "Hg10 mi
5:53 PM97 °FPassing clouds.8 mph26%29.83 "Hg10 mi
4:53 PM99 °FPassing clouds.14 mph24%29.83 "Hg10 mi
Weather by CustomWeather, © 2014

See weather overviewHow to use our weather pages